EWS-G1 (GOES 13)

Last updated on Tue Oct 15 2024 00:02:17 GMT+0000 (Coordinated Universal Time)

1 29155U 06018A 24287.84399567 .00000022 00000+0 00000+0 0 9993 2 29155 2.9311 83.8201 0062231 256.1762 28.4961 0.98829377 37200
UTC large
Height (km)
Speed (km/s)
/
Latitude / Longitude
Inclination (degrees)
Orbital Period (minutes)
Azimuth
Elevation
Range (km)
Doppler Factor

Next 0 passes for location: London (51.5072 / 0.1276)

Sorry there are no passes over London.